Mexico City Airport, Mexico

9:28 AM CST on December 15, 2017 (GMT -0600)
Lic Benito Juarez International

Weather History for MMMX - October, 2011

Change the Weather History Date:

Sunday, October 2, 2011

  Actual Average Record
Temperature  
Mean Temperature 60 °F -  
Max Temperature 66 °F 71 °F 78 °F (2000)
Min Temperature 55 °F 50 °F 42 °F (2010)
Degree Days  
Heating Degree Days 4    
Growing Degree Days 10 (Base 50)    
Moisture  
Dew Point 47 °F    
Average Humidity 62    
Maximum Humidity 77    
Minimum Humidity 49    
Precipitation  
Precipitation 0.00 in - - ()
Sea Level Pressure  
Sea Level Pressure 30.27 in    
Wind  
Wind Speed 8 mph ()    
Max Wind Speed 15 mph    
Max Gust Speed 23 mph    
Visibility 13.6 miles    
Events      
Averages and records for this station are not official NWS values.
T = Trace of Precipitation, MM = Missing Value Source: Averaged Metar Reports

Daily Weather History Graph

Daily Weather History Graph

Search for Another Location

Airport or City:

Trip Planner

Search our weather history database for the weather conditions in past years. The results will help you decide how hot, cold, wet, or windy it might be!

Date:

Astronomy

Oct. 02, 2011 Rise Set
Actual Time 7:27 AM CDT 7:23 PM CDT
Civil Twilight 7:05 AM CDT 7:45 PM CDT
Nautical Twilight 6:39 AM CDT 8:11 PM CDT
Astronomical Twilight 6:14 AM CDT 8:36 PM CDT
Moon 12:50 PM CDT (10/2) No Moon Set
Length of Visible Light 12h 40m
Length of Day
11h 56m
Waxing Crescent, 35% of the Moon is Illuminated
Oct 2
Waxing Crescent
Oct 3
First Quarter
Oct 11
Full
Oct 19
Last Quarter
Oct 26
New

Hourly Weather History & Observations

Time (CDT) Temp. Dew Point Humidity Pressure Visibility Wind Dir Wind Speed Gust Speed Precip Events Conditions
12:49 AM 57.2 °F 48.2 °F 72% 29.97 in 15.0 mi North 8.1 mph - N/A   Mostly Cloudy
1:53 AM 57.2 °F 48.2 °F 72% 30.39 in 15.0 mi North 11.5 mph - N/A   Mostly Cloudy
2:54 AM 57.2 °F 46.4 °F 67% 30.38 in 15.0 mi North 10.4 mph - N/A   Mostly Cloudy
3:48 AM 57.2 °F 48.2 °F 72% 29.93 in 15.0 mi NNE 11.5 mph - N/A   Mostly Cloudy
4:45 AM 57.2 °F 48.2 °F 72% 30.36 in 15.0 mi NNW 6.9 mph - N/A   Mostly Cloudy
5:55 AM 57.2 °F 48.2 °F 72% 30.36 in 15.0 mi North 5.8 mph - N/A   Mostly Cloudy
6:51 AM 55.4 °F 48.2 °F 77% 29.94 in 14.0 mi NNW 5.8 mph - N/A   Mostly Cloudy
7:20 AM 57.2 °F 48.2 °F 72% 30.37 in 12.0 mi NW 6.9 mph - N/A   Overcast
7:46 AM 57.2 °F 48.2 °F 72% 30.38 in 12.0 mi NNW 5.8 mph - N/A   Overcast
8:20 AM 57.2 °F 48.2 °F 72% 30.39 in 12.0 mi North 5.8 mph - N/A   Overcast
8:44 AM 59.0 °F 46.4 °F 63% 30.39 in 12.0 mi NNW 9.2 mph - N/A   Overcast
9:23 AM 60.8 °F 48.2 °F 63% 30.40 in 12.0 mi WNW 5.8 mph - N/A   Mostly Cloudy
9:40 AM 60.8 °F 48.2 °F 63% 30.09 in 12.0 mi WNW 4.6 mph - N/A   Mostly Cloudy
10:20 AM 60.8 °F 46.4 °F 59% 30.41 in 15.0 mi West 4.6 mph - N/A   Overcast
10:38 AM 60.8 °F 46.4 °F 59% 30.41 in 15.0 mi NW 6.9 mph - N/A   Overcast
10:42 AM 62.6 °F 46.4 °F 55% 30.41 in 15.0 mi WNW 4.6 mph - N/A   Overcast
11:46 AM 62.6 °F 46.4 °F 55% 30.41 in 15.0 mi ENE 9.2 mph - N/A   Overcast
12:44 PM 64.4 °F 46.4 °F 52% 29.95 in 15.0 mi North 6.9 mph - N/A   Overcast
1:44 PM 64.4 °F 46.4 °F 52% 30.38 in 15.0 mi North 9.2 mph - N/A   Overcast
2:49 PM 66.2 °F 46.4 °F 49% 30.34 in 12.0 mi WNW 6.9 mph - N/A   Overcast
3:49 PM 66.2 °F 46.4 °F 49% 29.99 in 12.0 mi WNW 5.8 mph - N/A   Overcast
4:55 PM 66.2 °F 46.4 °F 49% 30.31 in 12.0 mi North 11.5 mph - N/A   Overcast
5:50 PM 66.2 °F 46.4 °F 49% 30.30 in 12.0 mi North 12.7 mph - N/A   Overcast
6:48 PM 66.2 °F 46.4 °F 49% 29.88 in 12.0 mi North 10.4 mph - N/A   Mostly Cloudy
7:48 PM 64.4 °F 46.4 °F 52% 30.34 in 12.0 mi North 11.5 mph 23.0 mph N/A   Mostly Cloudy
8:47 PM 60.8 °F 46.4 °F 59% 30.37 in 12.0 mi North 11.5 mph 23.0 mph N/A   Mostly Cloudy
8:48 PM 60.8 °F 46.4 °F 59% 30.37 in 12.0 mi North 11.5 mph 23.0 mph N/A   Mostly Cloudy
9:45 PM 60.8 °F 48.2 °F 63% 29.95 in 15.0 mi North 13.8 mph - N/A   Mostly Cloudy
10:45 PM 59.0 °F 48.2 °F 67% 30.41 in 15.0 mi North 15.0 mph - N/A   Mostly Cloudy
11:44 PM 57.2 °F 46.4 °F 67% 30.41 in 15.0 mi North 12.7 mph - N/A   Scattered Clouds